Location: Bukit Lungun
(2.6833°N, 113.9667°E)
Time: 14:56:01
(UTC+00:00)

Cosmos 1805 Rocket - Pass Details

Date: 02 March 2021
Orbit: 605 x 630 km, 82.5° (Epoch: 21 April)

Event Time Altitude Azimuth Distance (km) Brightness Sun altitude
Rises 22:06:47 0° 348° (NNW) 2,902 6.8 -7.6°
Reaches altitude 10° 22:09:03 10° 344° (NNW) 1,996 5.9 -7.0°
Maximum altitude 22:13:22 54° 267° (W) 763 3.7 -6.0°
Drops below altitude 10° 22:17:41 10° 189° (S) 1,992 6.2 -4.9°
Sets 22:19:57 0° 185° (S) 2,896 7.0 -4.3°
